User: anonymous   Login
Location: Unspecified
(0.0000°N, 0.0000°E)
Time: 14:19:49
(UTC+01:00)
Language:

Cosmos 1782 Rocket - Orbit

View from above orbital plane
View from above orbital plane
View from above satellite
View from above satellite

Ground track
Ground track

The orbit data is extracted from the following two-line orbital elements,

1 16987U 86074B   17022.87095760  .00000076  00000-0  64317-5 0  9999
2 16987  82.5160  86.5157 0018813  24.0761  94.9596 14.82942779636930
Epoch (UTC): 22 January 2017 20:54:10
Eccentricity: 0.0018813
inclination: 82.5160°
perigee height: 607 km
apogee height: 633 km
right ascension of ascending node: 86.5157°
argument of perigee: 24.0761°
revolutions per day: 14.82942779
mean anomaly at epoch: 94.9596°
orbit number at epoch: 63693

The dashed part of the orbit path shows where the satellite is in the earth's shadow,  

DLR